Location: Bad Salzschlirf
(50.3750°N, 9.3000°E)
Time: 03:52:27
(UTC+02:00)

ISS - Pass Details

Date: 12 July 2025
Orbit: 413 x 417 km, 51.6° (Epoch: 12 July)

Event Time Altitude Azimuth Distance (km) Brightness Sun altitude
Rises 22:44:48 0° 256° (WSW) 2,347 0.4 -9.2°
Reaches altitude 10° 22:46:53 10° 256° (WSW) 1,487 -0.6 -9.4°
Maximum altitude 22:50:13 87° 346° (NNW) 421 -3.8 -9.8°
Drops below altitude 10° 22:53:35 10° 76° (ENE) 1,492 -1.2 -10.1°
Sets 22:55:41 0° 77° (ENE) 2,357 -0.2 -10.3°
